Location: Quesnel
(52.9830°N, 122.4830°W)
Time: 07:21:20
(UTC-07:00)

ISS - All Passes

Search period start: 28 July 2014 00:00
Search period end: 07 August 2014 00:00
Orbit: 411 x 420 km, 51.6° (Epoch: 28 July)

Date Brightness Start Highest point End Pass type
(mag) Time Alt. Az. Time Alt. Az. Time Alt. Az.
28 Jul - 01:26:55 10° SSW 01:29:52 29° SSE 01:32:49 10° E visible
28 Jul - 03:02:56 10° WSW 03:06:17 66° S 03:09:38 10° E visible
28 Jul - 04:39:34 10° W 04:42:54 60° SSW 04:46:13 10° ESE visible
28 Jul - 06:16:29 10° W 06:19:14 23° SSW 06:21:59 10° SSE daylight
29 Jul - 00:38:37 10° SSW 00:41:13 21° SSE 00:43:50 10° E visible
29 Jul - 02:14:12 10° WSW 02:17:30 57° SSE 02:20:50 10° E visible
29 Jul - 03:50:46 10° W 03:54:07 68° S 03:57:28 10° ESE visible
29 Jul - 05:27:32 10° W 05:30:34 31° SSW 05:33:36 10° SE daylight
29 Jul - 23:50:36 10° S 23:52:36 15° SE 23:54:37 10° ESE visible
30 Jul - 01:25:31 10° SW 01:28:45 46° SSE 01:32:00 10° E visible
30 Jul - 03:01:58 10° W 03:05:20 72° S 03:08:41 10° E visible
30 Jul - 04:38:40 10° W 04:41:52 41° SSW 04:45:04 10° SE visible
30 Jul - 06:16:23 10° WSW 06:17:57 13° SW 06:19:30 10° SSW daylight
30 Jul - 23:03:39 10° SE 23:04:03 10° SE 23:04:26 10° SE night (unlit)
31 Jul - 00:36:56 10° SW 00:40:02 36° SSE 00:43:09 10° E visible
31 Jul - 02:13:11 10° W 02:16:32 70° S 02:19:53 10° E visible
31 Jul - 03:49:50 10° W 03:53:07 52° SSW 03:56:24 10° ESE visible
31 Jul - 05:26:58 10° W 05:29:21 18° SW 05:31:44 10° S daylight
31 Jul - 23:48:27 10° SSW 23:51:20 27° SSE 23:54:14 10° E visible
01 Aug - 01:24:24 10° WSW 01:27:44 64° S 01:31:04 10° E visible
01 Aug - 03:01:01 10° W 03:04:21 62° S 03:07:41 10° ESE visible
01 Aug - 04:37:53 10° W 04:40:43 25° SSW 04:43:31 10° SSE visible
01 Aug - 23:00:11 10° SSW 23:02:41 20° SSE 23:05:12 10° E night (unlit)
02 Aug - 00:35:40 10° WSW 00:38:57 55° SSE 00:42:15 10° E visible
02 Aug - 02:12:12 10° W 02:15:33 69° S 02:18:54 10° ESE visible
02 Aug - 03:48:57 10° W 03:52:01 33° SSW 03:55:05 10° SE visible
02 Aug - 22:12:15 10° S 22:14:04 14° SE 22:15:53 10° ESE visible
02 Aug - 23:46:59 10° SW 23:50:11 44° SSE 23:53:24 10° E visible
03 Aug - 01:23:23 10° W 01:26:44 72° S 01:30:06 10° E visible
03 Aug - 03:00:04 10° W 03:03:17 43° SSW 03:06:30 10° SE visible
03 Aug - 04:37:38 10° WSW 04:39:24 14° SW 04:41:10 10° S visible
03 Aug - 22:58:23 10° SW 23:01:27 34° SSE 23:04:31 10° E visible
04 Aug - 00:34:35 10° WSW 00:37:55 69° S 00:41:16 10° E visible
04 Aug - 02:11:13 10° W 02:14:31 54° SSW 02:17:49 10° ESE visible
04 Aug - 03:48:17 10° W 03:50:47 19° SW 03:53:16 10° SSE visible
04 Aug - 22:09:56 10° SSW 22:12:44 25° SSE 22:15:34 10° E visible
04 Aug - 23:45:48 10° WSW 23:49:06 63° S 23:52:26 10° E visible
05 Aug - 01:22:23 10° W 01:25:43 64° S 01:29:03 10° ESE visible
05 Aug - 02:59:14 10° W 03:02:06 26° SSW 03:04:59 10° SSE night (unlit)
05 Aug - 21:21:41 10° S 21:24:04 18° SE 21:26:28 10° E daylight
05 Aug - 22:57:03 10° WSW 23:00:19 53° SSE 23:03:36 10° E visible
06 Aug - 00:33:33 10° W 00:36:54 70° S 00:40:15 10° E visible
06 Aug - 02:10:17 10° W 02:13:23 35° SSW 02:16:29 10° SE visible
06 Aug - 20:33:51 10° S 20:35:27 13° SE 20:37:03 10° ESE daylight
06 Aug - 22:08:21 10° SW 22:11:32 42° SSE 22:14:44 10° E visible
06 Aug - 23:44:44 10° W 23:48:04 72° S 23:51:25 10° E visible
